Date,TemperatureHighF,TemperatureAvgF,TemperatureLowF,DewpointHighF,DewpointAvgF,DewpointLowF,HumidityHigh,HumidityAvg,HumidityLow,PressureMaxIn,PressureMinIn,WindSpeedMaxMPH,WindSpeedAvgMPH,GustSpeedMaxMPH,PrecipitationSumIn
2013-2-1,35,25,17,29,12,1,90,59,32,30.58,30.20,8,2,14,0.00
2013-2-2,31,24,17,30,17,4,98,76,54,30.59,30.32,4,0,7,0.00
2013-2-3,34,31,27,30,26,21,96,81,70,30.32,30.19,7,2,13,0.00
2013-2-4,45,33,22,29,22,15,86,68,48,30.37,30.22,3,1,6,0.00
2013-2-5,47,40,34,38,31,23,89,72,59,30.22,30.14,5,1,8,0.00
2013-2-6,53,44,34,37,28,20,83,58,29,30.38,30.22,4,2,11,0.00
2013-2-7,46,42,39,41,34,24,96,76,48,30.38,30.13,4,1,6,0.00
2013-2-8,45,40,31,43,36,25,98,87,57,30.33,30.09,7,2,11,0.00
2013-2-9,54,39,27,28,22,17,82,53,24,30.51,30.30,4,1,6,0.00
2013-2-10,49,41,37,47,29,17,98,65,30,30.52,30.31,9,1,17,0.00
2013-2-11,53,48,40,52,43,23,98,84,46,30.31,30.18,3,1,9,0.00
2013-2-12,49,41,34,37,32,25,95,72,48,30.28,30.06,4,1,7,0.00
2013-2-13,46,38,31,44,36,28,99,91,78,30.08,29.84,7,1,10,0.00
2013-2-14,46,35,26,34,28,25,96,78,48,30.27,30.09,4,1,8,0.00
2013-2-15,50,38,31,35,31,28,90,76,47,30.32,30.15,7,1,8,0.01
2013-2-16,32,26,18,28,19,7,88,73,51,30.25,30.05,8,2,14,0.00
2013-2-17,30,22,15,14,8,3,68,55,32,30.53,30.25,21,2,21,0.00
2013-2-18,51,35,22,27,20,12,71,56,36,30.61,30.37,6,1,14,0.00
2013-2-19,45,37,30,38,27,14,97,69,45,30.36,30.10,10,2,21,0.38
2013-2-20,45,33,24,14,7,-3,60,36,17,30.35,30.27,5,1,20,0.00
2013-2-21,58,40,26,35,19,10,95,47,20,30.41,30.23,6,1,10,0.46
2013-2-22,43,38,33,43,38,32,99,96,93,30.38,30.24,8,1,11,0.61
2013-2-23,53,47,42,51,46,37,99,96,80,30.25,29.98,3,0,4,0.31
2013-2-24,55,42,33,38,30,20,94,65,26,30.20,30.02,6,2,6,0.00
2013-2-25,48,40,34,36,29,24,96,66,49,30.25,30.09,9,1,10,0.02
2013-2-26,49,40,36,47,38,32,98,92,82,30.08,29.70,9,2,15,1.53
2013-2-27,50,39,32,36,31,27,90,75,46,29.99,29.84,10,2,14,0.01
2013-2-28,35,30,27,29,24,22,83,78,73,30.14,29.91,6,2,15,0.00